Location: Unspecified
(51.0950°N, 12.9690°E)
Time: 18:26:32
(UTC+00:00)

BUGSAT 1 - Pass Details

Date: 16 May 2025
Orbit: 512 x 554 km, 98.1° (Epoch: 16 June)

Event Time Altitude Azimuth Distance (km) Brightness Sun altitude
Exits shadow 21:45:30 - 232° (SW) 2,168 ? -17.5°
Reaches altitude 10° 21:47:52 10° 262° (W) 1,755 ? -17.6°
Maximum altitude 21:48:31 10° 272° (W) 1,732 ? -17.6°
Drops below altitude 10° 21:49:11 10° 283° (WNW) 1,755 ? -17.7°
Sets 21:53:11 0° 326° (NW) 2,644 ? -17.9°
